Bookmark and Share
Track history (hours):
 

MSC Claudia

Last reported at 2014-Apr-16 12:33 UTC. Time now 2014-Apr-16 19:17 UTC.
Position N 39°57' E 001°15'.

Length 292 m; draft 8 m.

Type: Ship (hazmat cat A). MMSI: 370606000.

NotesDate/timePositionNaut miles runAvg speedWind from/ knotsBaromVisibWave heightAir tempDewpointWater temp
2014-Apr-16 12:33N 39°57' E 001°15'2020.3
2014-Apr-16 11:34N 40°07' E 001°38'1817.6
2014-Apr-16 10:34N 40°16' E 001°57'1413.7
2014-Apr-16 09:33N 40°24' E 002°12'1212.1
2014-Apr-16 08:33N 40°31' E 002°25'1312.9
2014-Apr-16 07:33N 40°38' E 002°39'1313.1
2014-Apr-16 06:33N 40°46' E 002°53'1313.2
2014-Apr-16 05:34N 40°54' E 003°07'1413.3
2014-Apr-16 04:29N 41°01' E 003°23'1313.3
2014-Apr-16 03:31N 41°09' E 003°37'2713.6
2014-Apr-16 01:33N 41°24' E 004°07'1413.2
2014-Apr-16 00:31N 41°31' E 004°22'1312.8
2014-Apr-15 23:32N 41°39' E 004°35'2512.6
2014-Apr-15 21:33N 41°53' E 005°03'1212.3
2014-Apr-15 20:33N 42°00' E 005°16'1312.3
2014-Apr-15 19:31N 42°07' E 005°31'1512.2
2014-Apr-15 18:19N 42°15' E 005°47'912.4
2014-Apr-15 17:34N 42°21' E 005°58'1212.3
2014-Apr-15 16:33N 42°28' E 006°11'1514.6
2014-Apr-15 15:33N 42°36' E 006°27'1615.9
2014-Apr-15 14:33N 42°47' E 006°44'15 7.8
2014-Apr-15 12:34N 42°51' E 007°04'1615.7
2014-Apr-15 11:34N 42°54' E 007°25'3215.8
2014-Apr-15 09:34N 43°11' E 008°02'1615.9
2014-Apr-15 08:34N 43°21' E 008°20'1616.0
2014-Apr-15 07:34N 43°30' E 008°37'1615.6
2014-Apr-15 06:34N 43°39' E 008°55'1615.5
2014-Apr-15 05:34N 43°46' E 009°14'3115.6
2014-Apr-15 03:34N 44°00' E 009°52'6 5.9
2014-Apr-15 02:33N 44°06' E 009°51'0 0.0
2014-Apr-15 01:33N 44°06' E 009°51'0 0.0
2014-Apr-15 00:30N 44°06' E 009°51'0 0.0
2014-Apr-14 23:33N 44°06' E 009°51'0 0.0
2014-Apr-14 22:32N 44°06' E 009°51'0 0.0
2014-Apr-14 21:32N 44°06' E 009°51'0 0.0
2014-Apr-14 20:32N 44°06' E 009°51'0 0.0
2014-Apr-14 19:32N 44°06' E 009°51'0 0.0
2014-Apr-14 18:32N 44°06' E 009°51'0 0.0
2014-Apr-14 17:29N 44°06' E 009°51'0 0.0
2014-Apr-14 16:32N 44°06' E 009°51'0 0.0
2014-Apr-14 15:32N 44°06' E 009°51'0 0.0
2014-Apr-14 14:32N 44°06' E 009°51'0 0.0
2014-Apr-14 13:32N 44°06' E 009°51'0 0.0
2014-Apr-14 11:32N 44°06' E 009°51'0 0.0
2014-Apr-14 10:32N 44°06' E 009°51'0 0.0
2014-Apr-14 09:32N 44°06' E 009°51'1 0.6
2014-Apr-14 08:33N 44°06' E 009°51'8 8.2
2014-Apr-14 07:33N 43°60' E 009°58'1010.2
2014-Apr-14 06:33N 43°50' E 009°53'1313.3
2014-Apr-14 05:33N 43°37' E 009°48'  
2014-Apr-11 19:10N 38°14' E 010°52'1716.5
2014-Apr-11 18:07N 38°12' E 010°30'916.5
2014-Apr-11 17:33N 38°11' E 010°18'1716.6
2014-Apr-11 16:33N 38°10' E 009°57'1716.5
2014-Apr-11 15:33N 38°08' E 009°36'1616.4
2014-Apr-11 14:33N 38°06' E 009°15'1616.5
2014-Apr-11 13:33N 38°04' E 008°54'1716.7
2014-Apr-11 12:33N 38°02' E 008°33'1716.7
2014-Apr-11 11:30N 38°01' E 008°11'13116.5
2014-Apr-11 03:33N 37°36' E 005°28'1716.7
2014-Apr-11 02:33N 37°32' E 005°07'1616.3
2014-Apr-11 01:33N 37°29' E 004°47'1717.0
2014-Apr-11 00:34N 37°25' E 004°26'1717.2
2014-Apr-10 23:33N 37°22' E 004°05'1717.1
2014-Apr-10 22:33N 37°19' E 003°44'1717.3
2014-Apr-10 21:33N 37°16' E 003°22'1818.6
2014-Apr-10 20:33N 37°12' E 002°60'1717.3
2014-Apr-10 19:33N 37°09' E 002°38'1717.3
2014-Apr-10 18:33N 37°05' E 002°17'1918.4
2014-Apr-10 17:33N 37°02' E 001°54'33416.7
2014-Apr-09 21:33N 36°02' W 004°54'1818.1
2014-Apr-09 20:33N 35°59' W 005°16'1817.7
2014-Apr-09 19:33N 35°55' W 005°37'1716.2
2014-Apr-09 18:31N 35°54' W 005°58'1616.1
2014-Apr-09 17:32N 35°54' W 006°18'6616.6
2014-Apr-09 13:33N 35°56' W 007°39'5116.9
2014-Apr-09 10:33N 35°58' W 008°42'1717.1
2014-Apr-09 09:33N 35°58' W 009°03'2017.8
2014-Apr-09 08:24N 35°59' W 009°28'1617.6
2014-Apr-09 07:31N 36°01' W 009°48'2418.0
2014-Apr-09 06:10N 36°05' W 010°17'1118.0
2014-Apr-09 05:33N 36°07' W 010°31'1817.8
2014-Apr-09 04:33N 36°10' W 010°52'65917.1
2014-Apr-07 14:05N 38°33' W 024°22'916.6
2014-Apr-07 13:33N 38°35' W 024°33'1716.6
2014-Apr-07 12:33N 38°39' W 024°54'1716.7
2014-Apr-07 11:34N 38°43' W 025°14'1716.8
2014-Apr-07 10:33N 38°46' W 025°36'3316.5
2014-Apr-07 08:34N 38°53' W 026°17'2016.8
2014-Apr-07 07:22N 38°58' W 026°42'1416.8
2014-Apr-07 06:33N 39°01' W 026°59'1716.6
2014-Apr-07 05:33N 39°04' W 027°20'1716.6
2014-Apr-07 04:33N 39°07' W 027°41'1716.7
2014-Apr-07 03:33N 39°11' W 028°02'1717.0
2014-Apr-07 02:33N 39°15' W 028°23'1717.2
2014-Apr-07 01:33N 39°20' W 028°44'1716.9
2014-Apr-07 00:33N 39°25' W 029°05'1716.9
2014-Apr-06 23:33N 39°29' W 029°27'1716.7
2014-Apr-06 22:33N 39°33' W 029°47'1716.6
2014-Apr-06 21:33N 39°38' W 030°08'2016.5
2014-Apr-06 20:22N 39°43' W 030°33'  

Dump ship's entire track history

sailing weather and tide predictions

MSC Claudia — 3FZA6 — position and weather